Zurück zum Katalog

SL-16 DEB

AktivLEO
NORAD 22417·DEBRIS·🇷🇺 Russia

Gestartet Dec 25, 1992 von Baikonur Cosmodrome

Loading…

Nächste Überflüge (nächste 24 Stunden)

TLE

AktuellSource: Space-Track

Epoche: Sep 14, 2026, 14:57 UTC

1 22417U 92093DJ  26257.62303047  .00000035  00000-0  54678-4 0  9998
2 22417  71.1825 214.1075 0088182 311.7749 221.6920 13.97691256718132

Verfolge SL-16 DEB in Echtzeit mit AllMySat

Download on the App Store